Terminal Aerodrome Forecast
Issued by NWS Bismarck, ND

Home | Current Version | Previous Version | Graphics & Text | Print | Product List | Glossary On
Versions: 1 2 3 4 5 6 7 8 9 10 11 12 13 14 15 16 17 18 19 20 21 22
000
FTUS43 KBIS 140721 AAB
TAFBIS
TAF AMD
KBIS 140721Z 1407/1506 24004KT P6SM VCSH SCT025 BKN050
     FM141000 30007KT 3SM -SN BR OVC015
     FM141500 34012G20KT P6SM -SN OVC010
     FM141800 33015G23KT P6SM OVC020=

USA.gov is the U.S. government's official web portal to all federal, state and local government web resources and services.